Weather Service Report


128 
ASUS44 KJAN 251510
RWRMS 

MISSISSIPPI HOURLY WEATHER ROUNDUP
NATIONAL WEATHER SERVICE JACKSON MS
1000 AM CDT TUE APR 25 2017

NOTE: "FAIR: INDICATES FEW OR NO CLOUDS BELOW 12,000 FEET WITH NO
SIGNIFICANT WEATHER AND/OR OBSTRUCTIONS TO VISIBILITY.

MSZ001>002-007>008-010>013-018>021-025>028-034>036-251600-
NORTHWEST MISSISSIPPI
  
CITY           SKY/WX    TMP DP  RH WIND       PRES   REMARKS
CLEVELAND      FAIR      69  54  58 SW13      29.77F                  
GREENWOOD      SUNNY     68  56  65 SW9       29.79S                  
GREENVILLE     SUNNY     68  54  60 SW13      29.77F                  
OLIVE BRANCH   SUNNY    N/A N/A N/A S9        29.76S                  
OXFORD         FAIR      66  52  59 SW9       29.80F                  
TUNICA         SUNNY     68  54  60 S9        29.76F                  
WINONA         FAIR      67  55  65 SW8       29.80S                  
$$

MSZ003>006-009-014>017-022>024-029>033-037>039-251600-
NORTHEAST MISSISSIPPI
  
CITY           SKY/WX    TMP DP  RH WIND       PRES   REMARKS
COLUMBUS AFB   SUNNY     68  60  75 W5        29.80S                  
CORINTH          N/A     66  55  68 VRB6      29.78F                  
GOLDN TRIANGLE SUNNY     70  54  56 S9        29.78S                  
STARKVILLE     FAIR      70  55  60 S6        29.82S                  
TUPELO         SUNNY     67  57  70 VRB6      29.80S                  
$$

MSZ040-058-251600-
CENTRAL MISSISSIPPI
  
CITY           SKY/WX    TMP DP  RH WIND       PRES   REMARKS
JACKSON INTL   SUNNY     69  55  60 SW6       29.82S                  
JACKSON HAWKNS SUNNY     69  54  58 SW10      29.82S                  
MADISON        FAIR      68  55  64 SW7       29.81S                  
MERIDIAN KEY   SUNNY     70  60  70 VRB6      29.82F                  
MERIDIAN NAS   SUNNY     71  56  58 SW5       29.82F                  
RAYMOND        FAIR      70  57  64 SW8G15    29.81S HAZE             
VICKSBURG VKS  SUNNY     70  57  64 SW8G15    29.79S                  
$$

MSZ059>079-251600-
SOUTH MISSISSIPPI
  
CITY           SKY/WX    TMP DP  RH WIND       PRES   REMARKS
BROOKHAVEN     FAIR      73  59  60 S10       29.84F                  
HATTIESBURG    SUNNY     71  54  54 SW8       29.84S                  
LAUREL         FAIR      70  57  63 SW10      29.84S                  
MCCOMB         SUNNY     70  54  56 S6        29.83S                  
NATCHEZ        MOSUNNY   69  57  65 VRB7      29.82S                  
PINE BELT      SUNNY     70  55  60 SW7       29.85S                  
$$

MSZ080>082-251600-
COASTAL MISSISSIPPI
  
CITY           SKY/WX    TMP DP  RH WIND       PRES   REMARKS
BAY ST LOUIS   MOSUNNY   72  54  53 VRB5      29.85F                  
BILOXI         SUNNY     74  55  51 W5        29.84S                  
PASCAGOULA     MOSUNNY   76  52  43 SW5       29.84S                  
GULFPORT       SUNNY     74  56  53 W5        29.84S                  
$$

LAZ007>009-015>016-023>026-251600-
NORTHEAST LOUISIANA
  
CITY           SKY/WX    TMP DP  RH WIND       PRES   REMARKS
BASTROP        FAIR      70  56  61 S10       29.77S                  
TALLULAH/VBURG SUNNY     69  55  60 VRB7      29.81S                  
VIDALIA        FAIR      70  57  63 S13       29.80S                  
$$
  

Return to Home page


Western Regional Climate Center, wrcc@dri.edu